Location: Gleizolles
(44.4833°N, 6.7667°E)
Time: 06:57:58
(UTC+00:00)

PCSat - Pass Details

Date: 09 December 2022
Orbit: 785 x 793 km, 67.0° (Epoch: 27 January)

Event Time Altitude Azimuth Distance (km) Brightness Sun altitude
Rises 18:42:22 0° 242° (WSW) 3,272 13.7 -29.3°
Reaches altitude 10° 18:45:04 10° 253° (WSW) 2,348 12.9 -29.8°
Maximum altitude 18:49:46 30° 314° (NW) 1,389 11.1 -30.6°
Enters shadow 18:51:04 27° 339° (NNW) 1,486 11.1 -30.8°
